Flag for Germany Weather past 2 weeks in Verden (Aller), Lower Saxony, Germany

Now
61 °F

Scattered clouds.


Feels Like: 61 °F
Forecast: 43 / 67 °F
Wind: 13 mph from Northwest

Location: Bremen Airport

Current Time: Jun 3, 2015 at 7:43:34 PM

Latest Report: Jun 3, 2015 at 7:20 PM


Visibility: N/A

Pressure: 30.21 "Hg

Humidity: 59%

Dew point: 46 °F

Location of Verden (Aller)Location

Historic Weather in Verden (Aller) — Graph

°F

Verden (Aller) temperature yesterday

Maximum temperature yesterday: 66 °F (at 5:50 PM)
Minimum temperature yesterday: 50 °F (at 12:50 AM)
Average temperature yesterday: 60 °F

Past Weeks' High & Low Weather Summary

 TemperatureHumidityPressure
High66 °F (May 22, 1:50 PM)100% (May 20, 4:20 AM)30.30 "Hg (May 20, 4:20 AM)
Low36 °F (May 24, 4:50 AM)36% (May 25, 4:50 PM)29.65 "Hg (May 29, 8:50 PM)
Average54 °F72%29.99 "Hg
* Reported May 19 6:20 PM — Jun 3 6:20 PM, Verden (Aller), Weather by CustomWeather, © 2015

Note: Actual official high and low records may vary slightly from our data, if they occured in-between our weather recording intervals... More about our weather records

Advertising

Verden (Aller) weather history for previous 24 hours

 ConditionsComfort  
Time TempWeatherWind HumidityBarometerVisibility
6:20 PM
Wed, Jun 3
63 °FScattered clouds.14 mph49%30.21 "HgN/A
5:50 PM63 °FScattered clouds.15 mph49%30.18 "HgN/A
5:20 PM64 °FScattered clouds.16 mph46%30.18 "HgN/A
4:50 PM63 °FScattered clouds.14 mph49%30.18 "HgN/A
4:20 PM63 °FScattered clouds.14 mph52%30.18 "HgN/A
3:50 PM64 °FPassing clouds.17 mph52%30.18 "HgN/A
3:20 PM61 °FPartly sunny.18 mph52%30.15 "HgN/A
2:50 PM61 °FPartly sunny.15 mph59%30.15 "HgN/A
2:20 PM59 °FPartly sunny.12 mph68%30.15 "HgN/A
1:50 PM59 °FBroken clouds.17 mph63%30.12 "HgN/A
1:20 PM59 °FBroken clouds.15 mph63%30.09 "HgN/A
12:50 PM61 °FPartly sunny.18 mph55%30.09 "HgN/A
12:20 PM59 °FPartly sunny.17 mph59%30.07 "HgN/A
11:50 AM59 °FPartly sunny.20 mph59%30.07 "HgN/A
11:20 AM59 °FBroken clouds.16 mph68%30.04 "HgN/A
10:50 AM59 °FBroken clouds.20 mph59%30.04 "HgN/A
10:20 AM61 °FBroken clouds.16 mph63%30.01 "HgN/A
9:50 AM61 °FBroken clouds.18 mph63%30.01 "HgN/A
9:20 AM61 °FScattered clouds.17 mph63%29.98 "HgN/A
8:50 AM61 °FPassing clouds.20 mph59%29.98 "HgN/A
8:20 AM61 °FScattered clouds.16 mph63%29.95 "HgN/A
7:50 AM59 °FPartly sunny.17 mph68%29.95 "HgN/A
7:20 AM59 °FScattered clouds.16 mph68%29.95 "HgN/A
6:50 AM59 °FScattered clouds.15 mph72%29.92 "HgN/A
6:20 AM59 °FScattered clouds.12 mph72%29.92 "HgN/A
5:20 AM57 °FClear.10 mph77%29.89 "Hg10 mi
4:50 AM59 °FClear.14 mph72%29.89 "Hg10 mi
4:20 AM59 °FPassing clouds.17 mph72%29.89 "HgN/A
3:50 AM59 °FCool.14 mph72%29.86 "HgN/A
3:20 AM61 °FPassing clouds.16 mph72%29.86 "HgN/A
2:50 AM63 °FPassing clouds.24 mph73%29.86 "HgN/A
2:20 AM64 °FPartly cloudy.21 mph73%29.86 "HgN/A
1:50 AM64 °FPassing clouds.12 mph73%29.83 "HgN/A
1:20 AM64 °FPassing clouds.17 mph73%29.83 "HgN/A
12:50 AM64 °FPassing clouds.16 mph73%29.83 "HgN/A
12:20 AM66 °FPassing clouds.18 mph68%29.83 "HgN/A
11:20 PM
Tue, Jun 2
66 °FPassing clouds.20 mph64%29.83 "HgN/A
10:50 PM66 °FPassing clouds.21 mph68%29.80 "HgN/A
10:20 PM66 °FPartly sunny.22 mph68%29.80 "HgN/A
9:50 PM66 °FPartly sunny.20 mph68%29.80 "HgN/A
9:20 PM64 °FBroken clouds.17 mph73%29.80 "HgN/A
8:50 PM64 °FPartly sunny.17 mph73%29.80 "HgN/A
8:20 PM64 °FMild.22 mph73%29.80 "HgN/A
7:50 PM64 °FPartly sunny.21 mph73%29.80 "HgN/A
7:20 PM64 °FPartly sunny.22 mph73%29.80 "HgN/A
Weather by CustomWeather, © 2015

See weather overviewHow to use our weather pages